User: anonymous   Login
Location: Asheville, NC
(35.6000°N, 82.5500°W)
Time: 06:44:26
(UTC-04:00)
Language:

XW-2A - Orbit

View from above orbital plane
View from above orbital plane
View from above satellite
View from above satellite

Ground track
Ground track

The orbit data is extracted from the following two-line orbital elements,

1 40903U 15049E   18198.91382480  .00001419  00000-0  36912-4 0  9997
2 40903  97.3818 234.0729 0012333 280.9047 156.9904 15.40617404158531
Epoch (UTC): 17 July 2018 21:55:54
Eccentricity: 0.0012333
inclination: 97.3818°
perigee height: 436 km
apogee height: 453 km
right ascension of ascending node: 234.0729°
argument of perigee: 280.9047°
revolutions per day: 15.40617404
mean anomaly at epoch: 156.9904°
orbit number at epoch: 15853

The dashed part of the orbit path shows where the satellite is in the earth's shadow,  

DLR